Wind_Speed
33 33 31 32 30 29 27 25 25 25 24 24 22 21 19 17 16 15 14 13 13 12 11 11 10 10 9 9 9 8 8 9 9 8 8 7 7 6 6 6 6 5 4
31 33 32 32 31 30 30 28 26 26 26 25 25 24 23 21 20 19 17 16 15 14 13 12 12 11 10 10 10 9 9 9 9 8 7 7 6 6 6 5 5 4 4
29 31 31 31 32 32 31 30 28 27 27 27 27 26 25 24 23 22 21 19 18 17 16 15 14 13 12 11 11 10 10 9 9 8 7 7 6 6 6 6 5 5 4
27 28 30 30 31 31 31 30 30 30 28 27 27 27 27 26 26 26 25 23 22 20 19 17 16 15 14 13 12 12 11 10 9 9 8 7 7 6 6 6 5 5 4
25 26 27 29 30 30 31 30 30 30 30 28 27 27 26 27 28 28 28 27 25 24 22 21 19 18 17 16 15 14 13 12 11 10 9 8 8 7 7 7 6 6 5
21 23 25 27 28 29 30 30 31 31 31 31 29 28 27 27 27 28 29 31 30 28 26 25 23 21 20 19 17 16 15 14 13 12 11 10 9 9 8 8 7 7 7
18 20 23 24 26 28 29 30 31 32 32 32 31 30 28 28 27 28 29 31 32 32 30 28 27 25 24 22 21 19 18 17 16 14 13 12 11 11 10 10 9 9 9
15 17 20 22 24 26 28 28 30 31 32 33 32 32 31 29 28 29 28 30 33 34 34 32 31 29 27 26 25 23 22 20 19 18 16 15 14 13 13 12 12 11 11
12 14 16 19 21 23 25 27 28 30 31 32 33 33 32 32 31 31 30 30 32 34 34 34 34 33 31 29 28 27 25 24 22 21 20 18 18 17 16 15 14 14 13
11 12 13 15 18 20 23 25 26 27 29 30 32 34 34 34 34 32 32 32 32 34 35 36 36 36 35 33 32 31 29 27 26 24 23 22 21 20 19 18 17 17 16
10 10 11 12 15 17 20 23 25 26 27 29 31 33 34 35 36 35 34 34 34 34 35 37 37 38 37 37 36 34 33 31 30 28 27 25 24 23 22 21 20 20 19
10 10 10 11 12 15 17 20 22 25 27 28 30 32 34 35 36 36 37 37 36 36 36 36 36 37 39 39 37 36 36 35 34 32 30 29 27 26 25 24 23 22 21
13 11 11 11 11 12 14 17 20 22 25 27 29 31 33 35 36 37 37 38 38 39 39 37 38 38 38 38 38 38 38 38 36 35 34 32 31 29 28 27 26 25 24
15 13 12 11 12 12 14 16 18 20 22 25 27 30 31 34 36 37 38 39 39 40 40 39 39 39 39 38 39 40 41 40 39 38 37 36 34 32 31 29 28 27 26
18 17 15 14 13 13 14 16 17 19 21 23 26 29 31 32 34 37 39 40 41 40 40 40 41 42 42 41 41 41 41 41 42 41 40 38 36 35 34 32 31 29 28
21 20 18 17 16 15 15 15 16 18 21 23 25 27 30 32 34 36 38 41 42 42 41 41 41 42 43 42 43 41 41 41 42 42 42 41 39 37 36 34 33 31 30
22 21 21 19 17 17 16 16 17 18 20 22 24 26 28 31 33 35 37 39 41 43 43 42 42 43 43 43 43 44 43 43 42 42 43 42 41 40 38 37 35 34 33
23 23 22 21 20 19 18 18 18 19 21 23 24 26 28 30 32 34 35 37 39 41 42 43 44 44 44 44 43 44 44 43 43 43 44 44 43 42 41 39 37 35 34
24 24 23 22 22 21 20 20 20 20 21 23 24 25 27 29 31 33 34 36 38 39 40 42 43 45 45 45 44 44 45 43 44 44 43 43 43 43 42 40 39 37 36
24 25 25 24 23 23 22 22 21 22 22 22 23 23 25 27 29 31 33 35 36 37 38 40 41 43 45 45 45 45 44 44 44 43 42 42 41 42 43 42 40 39 38
24 25 25 25 25 25 25 24 24 23 22 21 21 21 22 24 26 28 31 33 34 35 37 38 39 41 42 44 44 44 44 44 44 43 43 42 42 42 41 41 40 40 39
24 25 25 26 26 26 26 26 25 24 22 21 20 20 20 20 22 24 27 29 31 33 34 35 37 38 40 41 43 43 43 43 43 44 43 43 43 43 42 41 41 40 40
25 25 25 26 27 27 28 27 26 24 23 21 20 19 18 17 18 20 22 25 27 30 32 33 34 36 37 38 40 41 42 42 42 42 44 44 44 44 43 42 41 40 40
25 25 25 26 27 27 28 28 27 25 23 22 20 19 17 15 15 15 18 21 23 26 28 30 32 34 35 36 38 39 39 40 40 40 41 42 42 43 43 41 40 40 40
25 25 26 26 26 27 27 27 27 25 24 23 21 19 17 15 13 12 13 15 18 21 23 26 29 31 33 34 36 37 38 39 40 40 40 41 41 41 41 40 40 40 40
25 25 25 26 26 26 26 26 26 25 24 23 22 20 17 15 13 11 10 11 12 15 18 21 24 26 29 32 34 35 36 37 38 39 39 39 39 40 40 41 41 41 42
Wind_Direction
261 262 264 260 257 255 254 252 248 239 234 232 233 233 232 229 225 219 216 210 208 205 204 201 196 193 192 189 185 183 179 174 173 173 175 176 182 187 191 190 192 201 213
259 259 260 259 256 255 255 255 254 250 244 237 234 233 232 229 227 223 222 219 214 211 209 208 205 201 198 195 192 186 182 178 175 175 177 180 187 193 197 198 203 211 222
258 257 258 258 257 257 255 255 256 255 249 243 238 234 232 229 227 224 224 224 221 217 214 213 210 208 206 203 198 194 189 186 184 184 187 191 194 198 202 204 209 221 231
259 256 256 256 256 256 254 253 255 256 253 248 242 239 237 231 228 227 225 226 225 223 220 217 215 214 212 209 206 203 200 198 196 194 194 198 203 206 207 211 220 230 241
260 256 253 254 255 255 253 252 253 253 253 252 249 244 239 235 232 231 229 227 227 227 225 222 220 218 217 215 214 213 211 209 207 206 206 209 214 215 218 224 233 242 253
263 259 255 253 253 253 253 251 251 251 252 252 251 249 245 241 239 235 232 229 228 227 227 226 223 223 222 221 220 221 220 218 217 216 216 218 221 222 225 233 241 249 258
267 263 258 255 253 252 251 251 250 249 250 251 251 248 247 246 243 240 238 234 229 228 228 228 227 226 227 226 226 226 226 226 226 225 225 225 228 229 234 239 245 251 259
275 268 262 259 256 254 252 251 250 249 249 250 250 250 247 244 246 243 243 238 232 229 229 229 230 230 230 230 230 230 231 232 232 232 232 232 233 236 240 243 248 252 259
288 278 269 263 260 257 255 253 252 251 250 249 249 249 249 247 245 244 243 242 237 232 231 230 231 232 232 233 233 233 234 235 236 236 237 238 239 241 243 247 250 254 259
306 293 280 270 264 260 258 256 255 254 252 250 249 248 248 247 247 246 244 243 241 237 234 233 233 233 233 234 235 235 236 237 238 240 241 242 243 244 246 249 253 256 260
324 312 297 281 271 266 262 259 257 255 253 252 249 248 247 247 248 248 246 244 243 242 239 237 235 234 234 234 235 237 238 239 240 242 243 244 245 247 248 251 254 256 260
347 333 317 301 287 275 268 265 262 259 257 255 252 249 247 247 247 247 245 243 243 243 242 240 238 237 235 236 235 236 238 238 240 242 243 245 246 247 249 251 254 256 259
359 347 334 319 307 295 282 274 268 264 260 258 255 252 249 247 246 246 245 244 244 243 243 242 241 240 240 238 237 236 237 238 239 240 242 244 245 247 248 250 253 256 258
5 356 346 333 319 307 296 286 277 271 266 262 259 255 252 249 247 246 245 244 243 243 243 243 242 242 242 241 239 237 237 238 239 240 242 244 245 246 247 249 252 254 257
6 0 353 343 332 319 307 296 287 279 273 268 263 259 255 252 248 246 245 243 243 243 242 243 243 241 241 241 241 241 240 240 240 241 242 243 244 245 246 248 250 253 255
8 3 356 347 339 330 321 310 298 289 281 275 270 264 259 254 250 248 246 245 244 244 243 242 242 241 241 241 241 241 242 242 241 241 242 242 244 244 244 246 248 252 254
7 4 0 354 345 336 328 319 309 300 291 284 277 270 264 258 253 250 247 246 245 244 244 243 242 241 240 240 239 239 242 241 240 240 240 241 243 242 242 244 247 250 253
6 3 360 356 350 342 334 326 316 307 299 292 284 276 268 262 256 252 248 246 245 244 244 243 243 242 242 241 240 240 241 241 240 240 240 241 241 242 241 243 246 248 251
2 2 0 357 353 347 340 333 323 314 306 299 291 281 273 265 259 254 250 248 245 244 243 242 242 242 241 241 241 241 240 241 242 241 240 240 241 241 241 242 244 246 249
359 358 358 356 353 349 344 338 330 322 315 307 298 288 278 270 263 257 253 250 247 245 244 243 241 241 241 240 241 241 240 242 242 240 239 239 240 240 240 241 243 246 248
356 356 356 355 352 350 347 342 337 330 324 316 309 298 287 277 268 260 255 252 248 246 245 243 242 241 241 241 240 241 241 242 242 241 239 239 239 240 241 242 243 245 247
354 354 354 354 353 352 350 347 343 339 333 327 320 311 298 286 274 265 259 254 250 246 244 243 242 241 241 241 240 240 240 241 241 241 241 238 239 240 240 240 242 245 246
351 351 352 353 353 353 352 351 348 345 341 336 331 324 312 299 284 271 263 256 251 248 246 244 242 241 241 241 239 238 239 239 239 240 241 240 241 241 240 240 241 243 245
348 349 350 352 353 354 354 354 353 351 348 345 341 337 328 314 298 284 270 260 255 250 247 245 243 241 239 240 240 239 239 238 238 239 239 240 240 241 240 240 240 242 244
346 347 348 350 351 352 354 355 356 355 354 352 350 347 341 331 318 302 284 268 258 251 248 247 244 241 239 238 239 240 240 240 239 239 239 239 240 240 240 239 241 243 243
341 344 345 347 348 350 352 354 355 356 355 355 354 352 347 341 333 322 303 283 265 253 250 249 245 241 239 238 238 239 239 240 241 240 239 238 239 238 238 238 240 240 240
Height
5835 5837 5840 5842 5845 5847 5849 5852 5854 5856 5858 5862 5864 5866 5869 5871 5872 5874 5875 5877 5879 5880 5882 5883 5885 5886 5888 5889 5891 5892 5893 5895 5896 5898 5899 5901 5902 5904 5905 5905 5907 5908 5908
5827 5830 5832 5835 5838 5840 5843 5845 5848 5850 5853 5856 5859 5861 5864 5866 5869 5871 5873 5875 5877 5879 5880 5882 5884 5885 5887 5888 5890 5891 5893 5894 5896 5897 5899 5901 5902 5903 5904 5905 5906 5907 5908
5819 5822 5825 5828 5830 5833 5836 5839 5842 5844 5847 5850 5853 5854 5857 5862 5864 5867 5870 5872 5874 5876 5878 5880 5882 5884 5886 5887 5889 5891 5892 5894 5895 5897 5898 5900 5901 5902 5903 5905 5906 5906 5907
5812 5815 5817 5820 5823 5826 5829 5832 5835 5838 5841 5844 5847 5849 5852 5856 5860 5863 5866 5869 5871 5874 5876 5878 5880 5882 5884 5886 5888 5889 5891 5893 5894 5896 5897 5899 5900 5901 5903 5904 5905 5905 5906
5806 5808 5810 5813 5816 5819 5822 5825 5828 5831 5835 5837 5840 5843 5847 5851 5854 5857 5861 5864 5868 5870 5872 5875 5877 5880 5882 5884 5886 5888 5889 5891 5893 5894 5896 5897 5899 5900 5901 5903 5904 5904 5905
5800 5802 5804 5806 5809 5811 5814 5818 5821 5825 5828 5831 5834 5837 5841 5845 5848 5851 5855 5859 5862 5866 5868 5871 5874 5876 5879 5881 5883 5885 5887 5889 5891 5893 5894 5896 5897 5899 5900 5901 5902 5903 5904
5795 5796 5798 5800 5802 5805 5807 5810 5814 5817 5821 5824 5827 5831 5834 5837 5841 5845 5848 5852 5856 5860 5863 5866 5869 5872 5875 5878 5880 5882 5884 5887 5889 5890 5892 5893 5895 5896 5898 5899 5900 5901 5902
5790 5791 5792 5794 5796 5798 5801 5804 5807 5810 5813 5816 5820 5823 5827 5831 5834 5838 5841 5845 5849 5853 5857 5861 5864 5867 5870 5873 5876 5879 5881 5883 5885 5887 5889 5891 5892 5894 5895 5896 5898 5899 5899
5787 5787 5788 5789 5790 5792 5794 5797 5800 5803 5806 5809 5813 5817 5820 5823 5826 5830 5834 5838 5842 5846 5850 5854 5857 5861 5864 5867 5871 5874 5877 5879 5881 5884 5886 5887 5889 5890 5892 5893 5894 5896 5896
5784 5783 5783 5784 5785 5787 5788 5790 5793 5796 5799 5802 5805 5808 5812 5815 5819 5822 5826 5830 5834 5838 5842 5846 5850 5854 5857 5861 5864 5868 5871 5874 5877 5879 5881 5883 5885 5887 5888 5890 5891 5892 5893
5782 5781 5780 5780 5781 5782 5783 5785 5787 5789 5792 5794 5797 5801 5804 5807 5811 5815 5818 5822 5826 5830 5834 5838 5841 5845 5850 5854 5858 5861 5864 5868 5871 5873 5876 5878 5880 5882 5884 5885 5886 5888 5889
5781 5780 5779 5778 5777 5778 5778 5779 5781 5782 5784 5787 5789 5792 5796 5799 5802 5805 5809 5813 5817 5821 5825 5829 5833 5837 5842 5846 5849 5853 5856 5860 5863 5867 5870 5872 5875 5877 5878 5880 5882 5883 5884
5781 5779 5777 5776 5775 5774 5774 5774 5775 5776 5777 5779 5781 5784 5787 5790 5793 5796 5800 5804 5807 5811 5815 5820 5825 5828 5833 5837 5841 5845 5847 5850 5855 5859 5862 5865 5868 5870 5872 5874 5876 5877 5879
5781 5778 5776 5774 5772 5771 5770 5770 5770 5770 5771 5772 5773 5775 5778 5780 5783 5786 5790 5794 5798 5802 5806 5811 5815 5819 5823 5827 5831 5835 5839 5842 5846 5850 5854 5858 5861 5864 5866 5868 5870 5871 5873
5780 5777 5774 5772 5770 5768 5767 5766 5765 5765 5765 5765 5765 5767 5769 5771 5774 5776 5780 5783 5788 5791 5796 5801 5805 5809 5812 5817 5821 5825 5829 5833 5837 5841 5845 5849 5853 5856 5859 5861 5863 5865 5867
5780 5777 5773 5770 5768 5765 5763 5761 5760 5759 5758 5758 5758 5758 5759 5761 5763 5766 5769 5773 5776 5781 5785 5790 5794 5798 5802 5807 5811 5815 5820 5823 5828 5832 5836 5841 5844 5848 5851 5853 5856 5858 5860
5780 5776 5772 5769 5765 5762 5760 5757 5755 5753 5752 5750 5750 5750 5750 5751 5753 5755 5758 5762 5765 5769 5774 5779 5783 5787 5792 5796 5801 5805 5810 5814 5818 5822 5827 5831 5835 5839 5842 5845 5848 5850 5853
5780 5775 5771 5767 5763 5760 5756 5754 5751 5748 5746 5744 5742 5741 5741 5741 5743 5745 5748 5751 5754 5758 5762 5767 5772 5776 5780 5785 5790 5795 5799 5804 5808 5813 5817 5821 5825 5829 5833 5836 5839 5842 5845
5779 5775 5770 5766 5761 5757 5753 5750 5746 5743 5739 5737 5734 5732 5731 5731 5732 5734 5737 5740 5743 5746 5750 5755 5760 5764 5769 5774 5779 5783 5788 5793 5798 5802 5806 5810 5815 5819 5823 5827 5831 5834 5837
5778 5774 5769 5764 5759 5755 5750 5746 5741 5737 5733 5729 5726 5723 5722 5722 5722 5724 5726 5729 5732 5736 5739 5744 5748 5753 5757 5762 5767 5773 5777 5782 5787 5791 5796 5800 5805 5809 5813 5818 5822 5825 5828
5777 5773 5768 5763 5757 5752 5747 5742 5737 5732 5727 5723 5719 5716 5714 5713 5713 5714 5716 5719 5722 5725 5729 5733 5737 5742 5746 5751 5756 5761 5766 5771 5776 5781 5786 5790 5795 5799 5803 5808 5812 5816 5819
5776 5771 5766 5761 5756 5750 5744 5738 5732 5727 5722 5718 5714 5711 5708 5706 5705 5705 5706 5709 5712 5715 5719 5723 5727 5731 5735 5740 5745 5750 5755 5761 5766 5772 5775 5780 5784 5789 5793 5798 5802 5806 5809
5774 5770 5765 5760 5754 5748 5742 5736 5729 5724 5719 5714 5710 5706 5703 5700 5698 5698 5699 5701 5703 5706 5710 5713 5717 5721 5726 5730 5735 5740 5744 5749 5755 5759 5763 5769 5774 5778 5783 5787 5792 5796 5799
5773 5768 5763 5758 5753 5747 5741 5734 5728 5722 5717 5712 5708 5703 5700 5697 5695 5693 5693 5694 5696 5698 5701 5705 5709 5712 5716 5720 5724 5729 5733 5738 5743 5748 5753 5758 5763 5768 5772 5777 5781 5786 5789
5771 5766 5761 5756 5751 5746 5740 5734 5728 5722 5717 5712 5707 5702 5698 5695 5693 5691 5690 5690 5691 5692 5694 5697 5700 5703 5707 5711 5715 5720 5724 5728 5733 5738 5743 5748 5752 5757 5762 5766 5771 5776 5779
5768 5764 5759 5755 5750 5745 5739 5734 5728 5722 5717 5712 5707 5702 5698 5695 5692 5690 5688 5687 5687 5688 5689 5691 5693 5696 5699 5703 5706 5710 5715 5719 5723 5728 5733 5737 5742 5747 5751 5756 5761 5765 5769